Location: Hanover
(52.3667°N, 9.7167°E)
Time: 03:55:34
(UTC+02:00)

ARIANE 6 FM1 Upper Stage - Pass Details

Date: 23 September 2024
Orbit: 564 x 594 km, 62.0° (Epoch: 06 October)

Event Time Altitude Azimuth Distance (km) Brightness Sun altitude
Rises 23:47:55 0° 283° (WNW) 2,809 6.7 -35.2°
Reaches altitude 10° 23:50:31 10° 298° (WNW) 1,916 5.9 -35.4°
Enters shadow 23:51:23 14° 307° (NW) 1,663 5.6 -35.4°
